When you browse on this site, cookies collect data to enhance your experience and personalize the content and advertising you see.
Visit our Privacy Policy to learn more. By continuing to use the site, you agree to this use of cookies and data.

Hourly Weather Salta

Today, 25 September, Friday

Time Temperature Precipitation Wind Pressure Humidity
00:00 +22°C° 0 mm 1 mps 650 mmHg 55%
01:00 +22°C° 0 mm 1 mps 650 mmHg 55%
02:00 +21°C° 0 mm 1 mps 649 mmHg 56%
03:00 +21°C° 0 mm 1 mps 649 mmHg 55%
04:00 +20°C° 0 mm 1 mps 649 mmHg 54%
05:00 +20°C° 0 mm 1 mps 649 mmHg 53%
06:00 +22°C° 0 mm 1 mps 650 mmHg 47%
07:00 +25°C° 0 mm 1 mps 651 mmHg 41%
08:00 +27°C° 0 mm 1 mps 652 mmHg 35%
09:00 +29°C° 0 mm 1 mps 652 mmHg 31%
10:00 +32°C° 0 mm 2 mps 652 mmHg 27%
11:00 +35°C° 0 mm 2 mps 652 mmHg 24%
12:00 +36°C° 0 mm 2 mps 651 mmHg 22%
13:00 +36°C° 0 mm 3 mps 650 mmHg 21%
14:00 +37°C° 0 mm 3 mps 650 mmHg 20%
15:00 +36°C° 0 mm 3 mps 649 mmHg 20%
16:00 +36°C° 0 mm 3 mps 649 mmHg 21%
17:00 +35°C° 0 mm 3 mps 648 mmHg 22%
18:00 +31°C° 0 mm 3 mps 648 mmHg 27%
19:00 +29°C° 0 mm 2 mps 648 mmHg 32%
20:00 +26°C° 0 mm 1 mps 648 mmHg 38%
21:00 +26°C° 0 mm 2 mps 649 mmHg 39%
22:00 +25°C° 0 mm 2 mps 649 mmHg 40%
23:00 +25°C° 0 mm 2 mps 649 mmHg 40%

Tomorrow, 26 September, Saturday

Time Temperature Precipitation Wind Pressure Humidity
00:00 +24°C° 0 mm 2 mps 648 mmHg 40%
01:00 +24°C° 0 mm 2 mps 648 mmHg 39%
02:00 +23°C° 0 mm 2 mps 648 mmHg 38%
03:00 +23°C° 0 mm 2 mps 647 mmHg 36%
04:00 +23°C° 0 mm 2 mps 647 mmHg 34%
05:00 +21°C° 0 mm 2 mps 647 mmHg 32%
06:00 +25°C° 0 mm 1 mps 648 mmHg 28%
07:00 +27°C° 0 mm 1 mps 649 mmHg 24%
08:00 +29°C° 0 mm 1 mps 650 mmHg 20%
09:00 +32°C° 0 mm 1 mps 650 mmHg 18%
10:00 +35°C° 0 mm 2 mps 651 mmHg 16%
11:00 +38°C° 0 mm 2 mps 651 mmHg 14%
12:00 +38°C° 0 mm 3 mps 650 mmHg 16%
13:00 +37°C° 0 mm 5 mps 649 mmHg 18%
14:00 +38°C° 0 mm 6 mps 649 mmHg 19%
15:00 +35°C° 0 mm 5 mps 648 mmHg 24%
16:00 +34°C° 0 mm 5 mps 647 mmHg 29%
17:00 +32°C° 0 mm 4 mps 647 mmHg 34%
18:00 +29°C° 0 mm 3 mps 647 mmHg 43%
19:00 +26°C° 0 mm 2 mps 647 mmHg 52%
20:00 +24°C° 0 mm 1 mps 648 mmHg 60%
21:00 +23°C° 0 mm 1 mps 648 mmHg 64%
22:00 +22°C° 0 mm 1 mps 648 mmHg 67%
23:00 +21°C° 0 mm 1 mps 648 mmHg 71%

Day after tomorrow, 27 September, Sunday

Time Temperature Precipitation Wind Pressure Humidity
00:00 +20°C° 0.1 mm 1 mps 648 mmHg 73%
01:00 +20°C° 0.1 mm 1 mps 648 mmHg 76%
02:00 +18°C° 0.1 mm 2 mps 648 mmHg 78%
03:00 +17°C° 0 mm 2 mps 648 mmHg 77%
04:00 +17°C° 0 mm 2 mps 648 mmHg 77%
05:00 +17°C° 0 mm 2 mps 649 mmHg 76%
06:00 +17°C° 0 mm 2 mps 649 mmHg 74%
07:00 +17°C° 0 mm 2 mps 650 mmHg 72%
08:00 +17°C° 0 mm 2 mps 650 mmHg 71%
09:00 +17°C° 0 mm 2 mps 650 mmHg 69%
10:00 +17°C° 0 mm 3 mps 650 mmHg 68%
11:00 +18°C° 0 mm 3 mps 650 mmHg 67%
12:00 +18°C° 0 mm 3 mps 649 mmHg 63%
13:00 +19°C° 0 mm 2 mps 649 mmHg 59%
14:00 +20°C° 0 mm 2 mps 648 mmHg 55%
15:00 +20°C° 0 mm 2 mps 648 mmHg 51%
16:00 +20°C° 0 mm 2 mps 648 mmHg 47%
17:00 +20°C° 0 mm 2 mps 648 mmHg 44%
18:00 +18°C° 0 mm 2 mps 649 mmHg 45%
19:00 +18°C° 0 mm 1 mps 650 mmHg 46%
20:00 +16°C° 0 mm 1 mps 650 mmHg 47%
21:00 +15°C° 0 mm 1 mps 650 mmHg 47%
22:00 +14°C° 0 mm 1 mps 651 mmHg 47%
23:00 +13°C° 0 mm 1 mps 651 mmHg 47%

28 September, Monday

Time Temperature Precipitation Wind Pressure Humidity
00:00 +13°C° 0 mm 1 mps 651 mmHg 47%
01:00 +12°C° 0 mm 1 mps 650 mmHg 48%
02:00 +12°C° 0 mm 1 mps 650 mmHg 48%
03:00 +11°C° 0 mm 1 mps 649 mmHg 49%
04:00 +11°C° 0 mm 1 mps 649 mmHg 51%
05:00 +10°C° 0 mm 1 mps 649 mmHg 52%
06:00 +13°C° 0 mm 1 mps 650 mmHg 47%
07:00 +15°C° 0 mm 1 mps 651 mmHg 43%
08:00 +18°C° 0 mm 1 mps 652 mmHg 38%
09:00 +18°C° 0 mm 2 mps 652 mmHg 35%
10:00 +20°C° 0 mm 3 mps 652 mmHg 32%
11:00 +22°C° 0 mm 4 mps 651 mmHg 28%
12:00 +23°C° 0 mm 4 mps 651 mmHg 27%
13:00 +25°C° 0 mm 4 mps 650 mmHg 25%
14:00 +26°C° 0 mm 4 mps 649 mmHg 24%
15:00 +25°C° 0 mm 4 mps 648 mmHg 25%
16:00 +25°C° 0 mm 4 mps 648 mmHg 26%
17:00 +23°C° 0 mm 4 mps 647 mmHg 27%
18:00 +21°C° 0 mm 3 mps 647 mmHg 31%
19:00 +18°C° 0 mm 2 mps 647 mmHg 35%
20:00 +16°C° 0 mm 1 mps 646 mmHg 38%
21:00 +15°C° 0 mm 1 mps 647 mmHg 39%
22:00 +14°C° 0 mm 1 mps 647 mmHg 40%
23:00 +13°C° 0 mm 0 mps 647 mmHg 41%

29 September, Tuesday

Time Temperature Precipitation Wind Pressure Humidity
00:00 +13°C° 0 mm 1 mps 646 mmHg 40%
01:00 +13°C° 0 mm 1 mps 646 mmHg 40%
02:00 +13°C° 0 mm 1 mps 646 mmHg 39%
03:00 +13°C° 0 mm 1 mps 646 mmHg 38%
04:00 +12°C° 0 mm 1 mps 646 mmHg 38%
05:00 +12°C° 0 mm 2 mps 646 mmHg 37%
06:00 +15°C° 0 mm 1 mps 647 mmHg 32%
07:00 +18°C° 0 mm 1 mps 647 mmHg 28%
08:00 +21°C° 0 mm 1 mps 648 mmHg 24%
09:00 +24°C° 0 mm 1 mps 649 mmHg 20%
10:00 +27°C° 0 mm 2 mps 649 mmHg 16%
11:00 +30°C° 0 mm 2 mps 649 mmHg 13%
12:00 +31°C° 0 mm 2 mps 649 mmHg 12%
13:00 +34°C° 0 mm 3 mps 648 mmHg 11%
14:00 +35°C° 0 mm 3 mps 648 mmHg 10%
15:00 +34°C° 0 mm 3 mps 647 mmHg 11%
16:00 +34°C° 0 mm 3 mps 647 mmHg 11%
17:00 +32°C° 0 mm 2 mps 647 mmHg 12%
18:00 +29°C° 0 mm 2 mps 646 mmHg 16%
19:00 +26°C° 0 mm 1 mps 646 mmHg 20%
20:00 +22°C° 0 mm 1 mps 646 mmHg 24%
21:00 +22°C° 0 mm 1 mps 646 mmHg 23%
22:00 +21°C° 0 mm 2 mps 646 mmHg 21%
23:00 +21°C° 0 mm 2 mps 646 mmHg 20%

30 September, Wednesday

Time Temperature Precipitation Wind Pressure Humidity
00:00 +20°C° 0 mm 2 mps 646 mmHg 19%
01:00 +20°C° 0 mm 2 mps 646 mmHg 17%
02:00 +20°C° 0 mm 2 mps 646 mmHg 16%
03:00 +19°C° 0 mm 2 mps 646 mmHg 16%
04:00 +19°C° 0 mm 2 mps 646 mmHg 15%
05:00 +19°C° 0 mm 3 mps 646 mmHg 15%
06:00 +21°C° 0 mm 2 mps 647 mmHg 13%
07:00 +25°C° 0 mm 2 mps 648 mmHg 12%
08:00 +27°C° 0 mm 2 mps 649 mmHg 10%
09:00 +30°C° 0 mm 2 mps 650 mmHg 8%
10:00 +34°C° 0 mm 2 mps 650 mmHg 6%
11:00 +37°C° 0 mm 2 mps 651 mmHg 4%
12:00 +37°C° 0 mm 3 mps 650 mmHg 4%
13:00 +38°C° 0 mm 3 mps 650 mmHg 4%
14:00 +40°C° 0 mm 4 mps 649 mmHg 4%
15:00 +36°C° 0 mm 4 mps 649 mmHg 11%
16:00 +34°C° 0 mm 5 mps 648 mmHg 18%
17:00 +30°C° 0 mm 5 mps 648 mmHg 25%
18:00 +28°C° 0 mm 4 mps 648 mmHg 37%
19:00 +25°C° 0 mm 3 mps 648 mmHg 48%
20:00 +21°C° 0 mm 2 mps 648 mmHg 60%
21:00 +20°C° 0 mm 2 mps 649 mmHg 60%
22:00 +20°C° 0 mm 1 mps 649 mmHg 60%
23:00 +19°C° 0 mm 1 mps 649 mmHg 59%
Show more